Time,TemperatureF,DewpointF,PressureIn,WindDirection,WindDirectionDegrees,WindSpeedMPH,WindSpeedGustMPH,Humidity,HourlyPrecipIn,Conditions,Clouds,dailyrainin,SoftwareType,DateUTC
2014-04-25 00:00:00,51.0,51.0,29.96,South,170,0.0,0.0,100,0.00,,---,0.00,VWS V13.01,2014-04-25 04:00:00,
2014-04-25 00:01:00,51.0,51.0,29.96,South,170,0.0,0.0,100,0.00,,---,0.00,VWS V13.01,2014-04-25 04:01:00,
2014-04-25 00:02:00,51.0,51.0,29.96,South,170,0.0,0.0,100,0.00,,---,0.00,VWS V13.01,2014-04-25 04:02:00,
2014-04-25 00:03:00,50.8,50.8,29.96,South,170,0.0,0.0,100,0.00,,---,0.00,VWS V13.01,2014-04-25 04:03:00,
2014-04-25 00:04:00,50.8,50.8,29.96,South,170,0.0,0.0,100,0.00,,---,0.00,VWS V13.01,2014-04-25 04:04:00,
2014-04-25 00:05:00,50.8,50.8,29.96,South,170,0.0,0.0,100,0.00,,---,0.00,VWS V13.01,2014-04-25 04:05:00,
2014-04-25 00:06:00,50.8,50.8,29.96,South,170,0.0,0.0,100,0.00,,---,0.00,VWS V13.01,2014-04-25 04:06:00,
2014-04-25 00:07:00,50.8,50.8,29.96,South,170,0.0,0.0,100,0.00,,---,0.00,VWS V13.01,2014-04-25 04:07:00,
2014-04-25 00:08:00,50.8,50.8,29.96,South,170,0.0,0.0,100,0.00,,---,0.00,VWS V13.01,2014-04-25 04:08:00,
2014-04-25 00:09:00,50.8,50.8,29.96,South,170,0.0,0.0,100,0.00,,---,0.00,VWS V13.01,2014-04-25 04:09:00,
2014-04-25 00:10:00,50.8,50.8,29.96,South,170,0.0,0.0,100,0.00,,---,0.00,VWS V13.01,2014-04-25 04:10:00,
2014-04-25 00:11:00,50.8,50.8,29.96,South,170,0.0,0.0,100,0.00,,---,0.00,VWS V13.01,2014-04-25 04:11:00,
2014-04-25 00:12:00,50.7,50.7,29.96,South,170,0.0,0.0,100,0.00,,---,0.00,VWS V13.01,2014-04-25 04:12:00,
2014-04-25 00:13:00,50.7,50.7,29.96,South,170,0.0,0.0,100,0.00,,---,0.00,VWS V13.01,2014-04-25 04:13:00,
2014-04-25 00:14:00,50.7,50.7,29.96,South,170,0.0,0.0,100,0.00,,---,0.00,VWS V13.01,2014-04-25 04:14:00,
2014-04-25 00:15:00,50.7,50.7,29.96,South,170,0.0,0.0,100,0.00,,---,0.00,VWS V13.01,2014-04-25 04:15:00,
2014-04-25 00:16:00,50.7,50.7,29.96,South,170,0.0,0.0,100,0.00,,---,0.00,VWS V13.01,2014-04-25 04:16:00,
2014-04-25 00:17:00,50.5,50.5,29.96,South,170,0.0,0.0,100,0.00,,---,0.00,VWS V13.01,2014-04-25 04:17:00,
2014-04-25 00:18:00,50.5,50.5,29.96,South,170,0.0,0.0,100,0.00,,---,0.00,VWS V13.01,2014-04-25 04:18:00,
2014-04-25 00:19:00,50.5,50.5,29.96,South,170,0.0,0.0,100,0.00,,---,0.00,VWS V13.01,2014-04-25 04:19:00,
2014-04-25 00:20:00,50.5,50.5,29.96,South,170,0.0,0.0,100,0.00,,---,0.00,VWS V13.01,2014-04-25 04:20:00,
2014-04-25 00:21:00,50.5,50.5,29.96,South,170,0.0,0.0,100,0.00,,---,0.00,VWS V13.01,2014-04-25 04:21:00,
2014-04-25 00:22:00,50.5,50.5,29.96,South,170,0.0,0.0,100,0.00,,---,0.00,VWS V13.01,2014-04-25 04:22:00,
2014-04-25 00:23:00,50.4,50.4,29.96,South,170,0.0,0.0,100,0.00,,---,0.00,VWS V13.01,2014-04-25 04:23:00,
2014-04-25 00:24:00,50.4,50.4,29.96,South,170,0.0,0.0,100,0.00,,---,0.00,VWS V13.01,2014-04-25 04:24:00,
2014-04-25 00:25:00,50.4,50.4,29.96,South,170,0.0,0.0,100,0.00,,---,0.00,VWS V13.01,2014-04-25 04:25:00,
2014-04-25 00:26:00,50.4,50.4,29.96,South,170,0.0,0.0,100,0.00,,---,0.00,VWS V13.01,2014-04-25 04:26:00,
2014-04-25 00:27:00,50.4,50.4,29.96,South,170,0.0,0.0,100,0.00,,---,0.00,VWS V13.01,2014-04-25 04:27:00,
2014-04-25 00:28:00,50.4,50.4,29.96,South,170,0.0,0.0,100,0.00,,---,0.00,VWS V13.01,2014-04-25 04:28:00,
2014-04-25 00:29:00,50.4,50.4,29.96,South,170,0.0,0.0,100,0.00,,---,0.00,VWS V13.01,2014-04-25 04:29:00,
2014-04-25 00:30:00,50.4,50.4,29.95,South,170,0.0,0.0,100,0.00,,---,0.00,VWS V13.01,2014-04-25 04:30:00,
2014-04-25 00:31:00,50.4,50.4,29.95,South,170,0.0,0.0,100,0.00,,---,0.00,VWS V13.01,2014-04-25 04:31:00,
2014-04-25 00:32:00,50.4,50.4,29.95,South,170,0.0,0.0,100,0.00,,---,0.00,VWS V13.01,2014-04-25 04:32:00,
2014-04-25 00:33:00,50.4,50.4,29.95,South,170,0.0,0.0,100,0.00,,---,0.00,VWS V13.01,2014-04-25 04:33:00,
2014-04-25 00:34:00,50.4,50.4,29.95,South,170,0.0,0.0,100,0.00,,---,0.00,VWS V13.01,2014-04-25 04:34:00,
2014-04-25 00:35:00,50.4,50.4,29.95,South,170,0.0,0.0,100,0.00,,---,0.00,VWS V13.01,2014-04-25 04:35:00,
2014-04-25 00:36:00,50.4,50.4,29.95,South,170,0.0,0.0,100,0.00,,---,0.00,VWS V13.01,2014-04-25 04:36:00,
2014-04-25 00:37:00,50.4,50.4,29.95,South,170,0.0,0.0,100,0.00,,---,0.00,VWS V13.01,2014-04-25 04:37:00,
2014-04-25 00:38:00,50.4,50.4,29.95,South,170,0.0,0.0,100,0.00,,---,0.00,VWS V13.01,2014-04-25 04:38:00,
2014-04-25 00:39:00,50.4,50.4,29.95,South,170,0.0,0.0,100,0.00,,---,0.00,VWS V13.01,2014-04-25 04:39:00,
2014-04-25 00:40:00,50.4,50.4,29.95,South,170,0.0,0.0,100,0.00,,---,0.00,VWS V13.01,2014-04-25 04:40:00,
2014-04-25 00:41:00,50.4,50.4,29.95,South,170,0.0,0.0,100,0.00,,---,0.00,VWS V13.01,2014-04-25 04:41:00,
2014-04-25 00:42:00,50.4,50.4,29.95,South,170,0.0,0.0,100,0.00,,---,0.00,VWS V13.01,2014-04-25 04:42:00,
2014-04-25 00:43:00,50.4,50.4,29.95,South,170,0.0,0.0,100,0.00,,---,0.00,VWS V13.01,2014-04-25 04:43:00,
2014-04-25 00:44:00,50.4,50.4,29.95,South,170,0.0,0.0,100,0.00,,---,0.00,VWS V13.01,2014-04-25 04:44:00,
2014-04-25 00:45:00,50.4,50.4,29.95,South,170,0.0,0.0,100,0.00,,---,0.00,VWS V13.01,2014-04-25 04:45:00,
2014-04-25 00:46:00,50.2,50.2,29.95,South,170,0.0,0.0,100,0.00,,---,0.00,VWS V13.01,2014-04-25 04:46:00,
2014-04-25 00:47:00,50.2,50.2,29.95,South,170,0.0,0.0,100,0.00,,---,0.00,VWS V13.01,2014-04-25 04:47:00,
2014-04-25 00:48:00,50.2,50.2,29.95,South,170,0.0,0.0,100,0.00,,---,0.00,VWS V13.01,2014-04-25 04:48:00,
2014-04-25 00:49:00,50.2,50.2,29.95,South,170,0.0,0.0,100,0.00,,---,0.00,VWS V13.01,2014-04-25 04:49:00,
2014-04-25 00:50:00,50.2,50.2,29.95,South,170,0.0,0.0,100,0.00,,---,0.00,VWS V13.01,2014-04-25 04:50:00,
2014-04-25 00:51:00,50.2,50.2,29.95,South,170,0.0,0.0,100,0.00,,---,0.00,VWS V13.01,2014-04-25 04:51:00,
2014-04-25 00:52:00,50.2,50.2,29.95,South,170,0.0,0.0,100,0.00,,---,0.00,VWS V13.01,2014-04-25 04:52:00,
2014-04-25 00:53:00,50.2,50.2,29.95,South,170,0.0,0.0,100,0.00,,---,0.00,VWS V13.01,2014-04-25 04:53:00,
2014-04-25 00:54:00,50.2,50.2,29.95,South,170,0.0,0.0,100,0.00,,---,0.00,VWS V13.01,2014-04-25 04:54:00,
2014-04-25 00:55:00,50.2,50.2,29.95,South,170,0.0,0.0,100,0.00,,---,0.00,VWS V13.01,2014-04-25 04:55:00,
2014-04-25 00:56:00,50.2,50.2,29.95,South,170,0.0,0.0,100,0.00,,---,0.00,VWS V13.01,2014-04-25 04:56:00,
2014-04-25 00:57:00,50.2,50.2,29.95,South,170,0.0,0.0,100,0.00,,---,0.00,VWS V13.01,2014-04-25 04:57:00,
2014-04-25 00:58:00,50.2,50.2,29.95,South,170,0.0,0.0,100,0.00,,---,0.00,VWS V13.01,2014-04-25 04:58:00,
2014-04-25 00:59:00,50.2,50.2,29.94,South,170,0.0,0.0,100,0.00,,---,0.00,VWS V13.01,2014-04-25 04:59:00,
2014-04-25 01:00:00,50.2,50.2,29.94,South,170,0.0,0.0,100,0.00,,---,0.00,VWS V13.01,2014-04-25 05:00:00,
2014-04-25 01:01:00,50.2,50.2,29.94,South,170,0.0,0.0,100,0.00,,---,0.00,VWS V13.01,2014-04-25 05:01:00,
2014-04-25 01:02:00,50.2,50.2,29.94,South,170,0.0,0.0,100,0.00,,---,0.00,VWS V13.01,2014-04-25 05:02:00,
2014-04-25 01:03:00,50.2,50.2,29.94,South,170,0.0,0.0,100,0.00,,---,0.00,VWS V13.01,2014-04-25 05:03:00,
2014-04-25 01:04:00,50.1,50.1,29.94,South,170,0.0,0.0,100,0.00,,---,0.00,VWS V13.01,2014-04-25 05:04:00,
2014-04-25 01:05:00,50.1,50.1,29.94,South,170,0.0,0.0,100,0.00,,---,0.00,VWS V13.01,2014-04-25 05:05:00,
2014-04-25 01:06:00,50.1,50.1,29.94,South,170,0.0,0.0,100,0.00,,---,0.00,VWS V13.01,2014-04-25 05:06:00,
2014-04-25 01:07:00,50.1,50.1,29.94,South,170,0.0,0.0,100,0.00,,---,0.00,VWS V13.01,2014-04-25 05:07:00,
2014-04-25 01:08:00,50.1,50.1,29.94,South,170,0.0,0.0,100,0.00,,---,0.00,VWS V13.01,2014-04-25 05:08:00,
2014-04-25 01:09:00,50.2,50.2,29.94,South,170,0.0,0.0,100,0.00,,---,0.00,VWS V13.01,2014-04-25 05:09:00,
2014-04-25 01:10:00,50.2,50.2,29.94,South,170,0.0,0.0,100,0.00,,---,0.00,VWS V13.01,2014-04-25 05:10:00,
2014-04-25 01:11:00,50.1,50.1,29.94,South,170,0.0,0.0,100,0.00,,---,0.00,VWS V13.01,2014-04-25 05:11:00,
2014-04-25 01:12:00,50.1,50.1,29.94,South,170,0.0,0.0,100,0.00,,---,0.00,VWS V13.01,2014-04-25 05:12:00,
2014-04-25 01:13:00,50.1,50.1,29.94,South,170,0.0,0.0,100,0.00,,---,0.00,VWS V13.01,2014-04-25 05:13:00,
2014-04-25 01:14:00,50.1,50.1,29.94,South,170,0.0,0.0,100,0.00,,---,0.00,VWS V13.01,2014-04-25 05:14:00,
2014-04-25 01:15:00,50.1,50.1,29.94,South,170,0.0,0.0,100,0.00,,---,0.00,VWS V13.01,2014-04-25 05:15:00,
2014-04-25 01:16:00,50.1,50.1,29.94,South,170,0.0,0.0,100,0.00,,---,0.00,VWS V13.01,2014-04-25 05:16:00,
2014-04-25 01:17:00,50.1,50.1,29.94,South,170,0.0,0.0,100,0.00,,---,0.00,VWS V13.01,2014-04-25 05:17:00,
2014-04-25 01:18:00,50.1,50.1,29.94,South,170,0.0,0.0,100,0.00,,---,0.00,VWS V13.01,2014-04-25 05:18:00,
2014-04-25 01:19:00,50.1,50.1,29.94,South,170,0.0,0.0,100,0.00,,---,0.00,VWS V13.01,2014-04-25 05:19:00,
2014-04-25 01:20:00,50.1,50.1,29.94,South,170,0.0,0.0,100,0.00,,---,0.00,VWS V13.01,2014-04-25 05:20:00,
2014-04-25 01:21:00,50.1,50.1,29.94,South,170,0.0,0.0,100,0.00,,---,0.00,VWS V13.01,2014-04-25 05:21:00,
2014-04-25 01:22:00,50.1,50.1,29.94,South,170,0.0,0.0,100,0.00,,---,0.00,VWS V13.01,2014-04-25 05:22:00,
2014-04-25 01:23:00,50.1,50.1,29.94,South,170,0.0,0.0,100,0.00,,---,0.00,VWS V13.01,2014-04-25 05:23:00,
2014-04-25 01:24:00,50.1,50.1,29.94,South,170,0.0,0.0,100,0.00,,---,0.00,VWS V13.01,2014-04-25 05:24:00,
2014-04-25 01:25:00,50.1,50.1,29.94,South,170,0.0,0.0,100,0.00,,---,0.00,VWS V13.01,2014-04-25 05:25:00,
2014-04-25 01:26:00,50.1,50.1,29.94,South,170,0.0,0.0,100,0.00,,---,0.00,VWS V13.01,2014-04-25 05:26:00,
2014-04-25 01:27:00,50.1,50.1,29.94,South,170,0.0,0.0,100,0.00,,---,0.00,VWS V13.01,2014-04-25 05:27:00,
2014-04-25 01:28:00,50.1,50.1,29.94,South,170,0.0,0.0,100,0.00,,---,0.00,VWS V13.01,2014-04-25 05:28:00,
2014-04-25 01:29:00,50.1,50.1,29.94,South,170,0.0,0.0,100,0.00,,---,0.00,VWS V13.01,2014-04-25 05:29:00,
2014-04-25 01:30:00,50.1,50.1,29.94,South,170,0.0,0.0,100,0.00,,---,0.00,VWS V13.01,2014-04-25 05:30:00,
2014-04-25 01:31:00,50.1,50.1,29.94,South,170,0.0,0.0,100,0.00,,---,0.00,VWS V13.01,2014-04-25 05:31:00,
2014-04-25 01:32:00,50.1,50.1,29.94,South,170,0.0,0.0,100,0.00,,---,0.00,VWS V13.01,2014-04-25 05:32:00,
2014-04-25 01:33:00,50.1,50.1,29.94,South,170,0.0,0.0,100,0.00,,---,0.00,VWS V13.01,2014-04-25 05:33:00,
2014-04-25 01:34:00,50.1,50.1,29.94,South,170,0.0,0.0,100,0.00,,---,0.00,VWS V13.01,2014-04-25 05:34:00,
2014-04-25 01:35:00,50.1,50.1,29.94,South,170,0.0,0.0,100,0.00,,---,0.00,VWS V13.01,2014-04-25 05:35:00,
2014-04-25 01:36:00,49.9,49.9,29.94,South,170,0.0,0.0,100,0.00,,---,0.00,VWS V13.01,2014-04-25 05:36:00,
2014-04-25 01:37:00,49.9,49.9,29.94,South,170,0.0,0.0,100,0.00,,---,0.00,VWS V13.01,2014-04-25 05:37:00,
2014-04-25 01:38:00,49.9,49.9,29.94,South,170,0.0,0.0,100,0.00,,---,0.00,VWS V13.01,2014-04-25 05:38:00,
2014-04-25 01:39:00,49.9,49.9,29.94,South,170,0.0,0.0,100,0.00,,---,0.00,VWS V13.01,2014-04-25 05:39:00,